Location: Newark
(45.8833°N, 13.5000°E)
Time: 14:26:00
(UTC+00:00)

X-37B - Visible Passes

Search period start: 07 May 2021 00:00
Search period end: 17 May 2021 00:00
Orbit: 386 x 389 km, 45.0° (Epoch: 05 May)

Date Brightness Start Highest point End Pass type
(mag) Time Alt. Az. Time Alt. Az. Time Alt. Az.
07 May 0.6 19:04:35 10° WSW 19:07:46 71° S 19:10:57 10° E visible
07 May 1.1 20:41:10 10° W 20:43:46 51° WSW 20:43:46 51° WSW visible
08 May 0.5 19:42:48 10° W 19:46:00 75° S 19:47:56 22° ESE visible
08 May 3.2 21:19:31 10° W 21:20:12 15° W 21:20:12 15° W visible
09 May 0.9 20:21:04 10° W 20:24:10 48° SSW 20:24:19 48° S visible
10 May 0.7 19:22:41 10° W 19:25:51 64° S 19:28:25 14° ESE visible
10 May 2.9 20:59:36 10° W 21:00:42 16° WSW 21:00:42 16° WSW visible
11 May 1.5 20:01:01 10° W 20:03:57 33° SSW 20:04:48 28° S visible
12 May 1.1 19:02:35 10° W 19:05:41 48° SSW 19:08:46 10° ESE visible
12 May 3.0 20:40:04 10° WSW 20:41:11 13° SW 20:41:11 13° SW visible
13 May 2.3 19:41:08 10° W 19:43:41 22° SSW 19:45:19 15° SSE visible
15 May 3.0 19:21:36 10° WSW 19:23:20 14° SSW 19:25:05 10° S visible
